Time,TemperatureF,DewpointF,PressureIn,WindDirection,WindDirectionDegrees,WindSpeedMPH,WindSpeedGustMPH,Humidity,HourlyPrecipIn,Conditions,Clouds,dailyrainin,SolarRadiationWatts/m^2,SoftwareType,DateUTC
2013-03-06 00:01:00,22.0,15.0,-100.00,SW,230,1.0,6.0,75,0.00,,,0.00,0.000000,,2013-03-06 07:01:00,
2013-03-06 00:11:00,22.0,15.0,-100.00,SW,230,1.0,6.0,75,0.00,,,0.00,0.000000,,2013-03-06 07:11:00,
2013-03-06 00:21:00,22.0,15.0,-100.00,SW,230,1.0,6.0,75,0.00,,,0.00,0.000000,,2013-03-06 07:21:00,
2013-03-06 00:42:00,21.0,13.0,-100.00,NNE,21,1.0,9.0,70,0.00,,,0.00,0.000000,,2013-03-06 07:42:00,
2013-03-06 00:52:00,21.0,13.0,-100.00,NNE,21,1.0,9.0,70,0.00,,,0.00,0.000000,,2013-03-06 07:52:00,
2013-03-06 01:01:00,21.0,13.0,-100.00,NNE,21,1.0,9.0,70,0.00,,,0.00,0.000000,,2013-03-06 08:01:00,
2013-03-06 01:11:00,21.0,13.0,-100.00,NNE,21,1.0,9.0,70,0.00,,,0.00,0.000000,,2013-03-06 08:11:00,
2013-03-06 01:21:00,21.0,13.0,-100.00,NNE,21,1.0,9.0,70,0.00,,,0.00,0.000000,,2013-03-06 08:21:00,
2013-03-06 01:42:00,22.0,15.0,-100.00,NW,313,1.0,10.0,74,0.00,,,-99.99,0.000000,,2013-03-06 08:42:00,
2013-03-06 01:52:00,22.0,15.0,-100.00,NW,313,1.0,10.0,74,0.00,,,-99.99,0.000000,,2013-03-06 08:52:00,
2013-03-06 02:01:00,22.0,15.0,-100.00,NW,313,1.0,10.0,74,0.00,,,-99.99,0.000000,,2013-03-06 09:01:00,
2013-03-06 02:12:00,22.0,15.0,-100.00,NW,313,1.0,10.0,74,0.00,,,-99.99,0.000000,,2013-03-06 09:12:00,
2013-03-06 02:21:00,22.0,15.0,-100.00,NW,313,1.0,10.0,74,0.00,,,-99.99,0.000000,,2013-03-06 09:21:00,
2013-03-06 02:42:00,21.0,14.0,-100.00,West,259,0.0,5.0,75,0.00,,,0.00,0.000000,,2013-03-06 09:42:00,
2013-03-06 02:52:00,21.0,14.0,-100.00,West,259,0.0,5.0,75,0.00,,,0.00,0.000000,,2013-03-06 09:52:00,
2013-03-06 03:01:00,21.0,14.0,-100.00,West,259,0.0,5.0,75,0.00,,,0.00,0.000000,,2013-03-06 10:01:00,
2013-03-06 03:11:00,21.0,14.0,-100.00,West,259,0.0,5.0,75,0.00,,,0.00,0.000000,,2013-03-06 10:11:00,
2013-03-06 03:21:00,21.0,14.0,-100.00,West,259,0.0,5.0,75,0.00,,,0.00,0.000000,,2013-03-06 10:21:00,
2013-03-06 03:22:00,20.0,12.0,-100.00,NW,309,1.0,4.0,71,0.00,,,0.00,0.000000,,2013-03-06 10:22:00,
2013-03-06 03:42:00,20.0,12.0,-100.00,NW,309,1.0,4.0,71,0.00,,,0.00,0.000000,,2013-03-06 10:42:00,
2013-03-06 03:52:00,20.0,12.0,-100.00,NW,309,1.0,4.0,71,0.00,,,0.00,0.000000,,2013-03-06 10:52:00,
2013-03-06 04:02:00,20.0,12.0,-100.00,NW,309,1.0,4.0,71,0.00,,,0.00,0.000000,,2013-03-06 11:02:00,
2013-03-06 04:11:00,20.0,12.0,-100.00,NW,309,1.0,4.0,71,0.00,,,0.00,0.000000,,2013-03-06 11:11:00,
2013-03-06 04:42:00,20.0,12.0,-100.00,WSW,243,1.0,7.0,72,0.00,,,0.00,0.000000,,2013-03-06 11:42:00,
2013-03-06 04:52:00,20.0,12.0,-100.00,WSW,243,1.0,7.0,72,0.00,,,0.00,0.000000,,2013-03-06 11:52:00,
2013-03-06 05:01:00,20.0,12.0,-100.00,WSW,243,1.0,7.0,72,0.00,,,0.00,0.000000,,2013-03-06 12:01:00,
2013-03-06 05:11:00,20.0,12.0,-100.00,WSW,243,1.0,7.0,72,0.00,,,0.00,0.000000,,2013-03-06 12:11:00,
2013-03-06 05:21:00,20.0,12.0,-100.00,WSW,243,1.0,7.0,72,0.00,,,0.00,0.000000,,2013-03-06 12:21:00,
2013-03-06 05:43:00,19.0,12.0,-100.00,WNW,292,2.0,3.0,73,0.00,,,0.00,0.000000,,2013-03-06 12:43:00,
2013-03-06 05:52:00,19.0,12.0,-100.00,WNW,292,2.0,3.0,73,0.00,,,0.00,0.000000,,2013-03-06 12:52:00,
2013-03-06 06:01:00,19.0,12.0,-100.00,WNW,292,2.0,3.0,73,0.00,,,0.00,0.000000,,2013-03-06 13:01:00,
2013-03-06 06:11:00,19.0,12.0,-100.00,WNW,292,2.0,3.0,73,0.00,,,0.00,0.000000,,2013-03-06 13:11:00,
2013-03-06 06:21:00,19.0,12.0,-100.00,WNW,292,2.0,3.0,73,0.00,,,0.00,0.000000,,2013-03-06 13:21:00,
2013-03-06 06:42:00,19.0,13.0,-100.00,ESE,116,0.0,9.0,77,0.00,,,0.00,0.000000,,2013-03-06 13:42:00,
2013-03-06 06:52:00,19.0,13.0,-100.00,ESE,116,0.0,9.0,77,0.00,,,0.00,0.000000,,2013-03-06 13:52:00,
2013-03-06 07:01:00,19.0,13.0,-100.00,ESE,116,0.0,9.0,77,0.00,,,0.00,0.000000,,2013-03-06 14:01:00,
2013-03-06 07:11:00,19.0,13.0,-100.00,ESE,116,0.0,9.0,77,0.00,,,0.00,0.000000,,2013-03-06 14:11:00,
2013-03-06 07:21:00,19.0,13.0,-100.00,ESE,116,0.0,9.0,77,0.00,,,0.00,0.000000,,2013-03-06 14:21:00,
2013-03-06 07:42:00,19.0,12.0,-100.00,WSW,251,2.0,13.0,74,0.00,,,0.00,0.000000,,2013-03-06 14:42:00,
2013-03-06 07:52:00,19.0,12.0,-100.00,WSW,251,2.0,13.0,74,0.00,,,0.00,0.000000,,2013-03-06 14:52:00,
2013-03-06 08:01:00,19.0,12.0,-100.00,WSW,251,2.0,13.0,74,0.00,,,0.00,0.000000,,2013-03-06 15:01:00,
2013-03-06 08:11:00,19.0,12.0,-100.00,WSW,251,2.0,13.0,74,0.00,,,0.00,0.000000,,2013-03-06 15:11:00,
2013-03-06 08:21:00,19.0,12.0,-100.00,WSW,251,2.0,13.0,74,0.00,,,0.00,0.000000,,2013-03-06 15:21:00,
2013-03-06 08:42:00,21.0,14.0,-100.00,NE,39,1.0,4.0,74,0.00,,,0.00,19.000000,,2013-03-06 15:42:00,
2013-03-06 08:52:00,21.0,14.0,-100.00,NE,39,1.0,4.0,74,0.00,,,0.00,19.000000,,2013-03-06 15:52:00,
2013-03-06 09:01:00,21.0,14.0,-100.00,NE,39,1.0,4.0,74,0.00,,,0.00,19.000000,,2013-03-06 16:01:00,
2013-03-06 09:11:00,21.0,14.0,-100.00,NE,39,1.0,4.0,74,0.00,,,0.00,19.000000,,2013-03-06 16:11:00,
2013-03-06 09:21:00,21.0,14.0,-100.00,NE,39,1.0,4.0,74,0.00,,,0.00,19.000000,,2013-03-06 16:21:00,
2013-03-06 09:42:00,25.0,17.0,-100.00,WNW,299,0.0,6.0,70,0.00,,,-99.99,138.000000,,2013-03-06 16:42:00,
2013-03-06 09:52:00,25.0,17.0,-100.00,WNW,299,0.0,6.0,70,0.00,,,-99.99,138.000000,,2013-03-06 16:52:00,
2013-03-06 10:01:00,25.0,17.0,-100.00,WNW,299,0.0,6.0,70,0.00,,,-99.99,138.000000,,2013-03-06 17:01:00,
2013-03-06 10:11:00,25.0,17.0,-100.00,WNW,299,0.0,6.0,70,0.00,,,-99.99,138.000000,,2013-03-06 17:11:00,
2013-03-06 10:21:00,25.0,17.0,-100.00,WNW,299,0.0,6.0,70,0.00,,,-99.99,138.000000,,2013-03-06 17:21:00,
2013-03-06 10:22:00,28.0,18.0,-100.00,NNW,343,1.0,5.0,67,0.00,,,0.00,253.000000,,2013-03-06 17:22:00,
2013-03-06 10:42:00,28.0,18.0,-100.00,NNW,343,1.0,5.0,67,0.00,,,0.00,253.000000,,2013-03-06 17:42:00,
2013-03-06 10:52:00,28.0,18.0,-100.00,NNW,343,1.0,5.0,67,0.00,,,0.00,253.000000,,2013-03-06 17:52:00,
2013-03-06 11:01:00,28.0,18.0,-100.00,NNW,343,1.0,5.0,67,0.00,,,0.00,253.000000,,2013-03-06 18:01:00,
2013-03-06 11:42:00,29.0,16.0,-100.00,NNW,346,1.0,5.0,58,0.00,,,0.00,263.000000,,2013-03-06 18:42:00,
2013-03-06 11:52:00,29.0,16.0,-100.00,NNW,346,1.0,5.0,58,0.00,,,0.00,263.000000,,2013-03-06 18:52:00,
2013-03-06 12:02:00,29.0,16.0,-100.00,NNW,346,1.0,5.0,58,0.00,,,0.00,263.000000,,2013-03-06 19:02:00,
2013-03-06 12:11:00,29.0,16.0,-100.00,NNW,346,1.0,5.0,58,0.00,,,0.00,263.000000,,2013-03-06 19:11:00,
2013-03-06 12:21:00,29.0,16.0,-100.00,NNW,346,1.0,5.0,58,0.00,,,0.00,263.000000,,2013-03-06 19:21:00,
2013-03-06 12:43:00,33.0,13.0,-100.00,ESE,105,3.0,7.0,44,-99.99,,,0.00,376.000000,,2013-03-06 19:43:00,
2013-03-06 12:53:00,33.0,13.0,-100.00,ESE,105,3.0,7.0,44,-99.99,,,0.00,376.000000,,2013-03-06 19:53:00,
2013-03-06 13:01:00,33.0,13.0,-100.00,ESE,105,3.0,7.0,44,-99.99,,,0.00,376.000000,,2013-03-06 20:01:00,
2013-03-06 13:11:00,33.0,13.0,-100.00,ESE,105,3.0,7.0,44,-99.99,,,0.00,376.000000,,2013-03-06 20:11:00,
2013-03-06 13:21:00,33.0,13.0,-100.00,ESE,105,3.0,7.0,44,-99.99,,,0.00,376.000000,,2013-03-06 20:21:00,
2013-03-06 13:42:00,38.0,13.0,-100.00,NNE,18,7.0,8.0,36,-99.99,,,0.00,543.000000,,2013-03-06 20:42:00,
2013-03-06 13:52:00,38.0,13.0,-100.00,NNE,18,7.0,8.0,36,-99.99,,,0.00,543.000000,,2013-03-06 20:52:00,
2013-03-06 14:02:00,38.0,13.0,-100.00,NNE,18,7.0,8.0,36,-99.99,,,0.00,543.000000,,2013-03-06 21:02:00,
2013-03-06 14:11:00,38.0,13.0,-100.00,NNE,18,7.0,8.0,36,-99.99,,,0.00,543.000000,,2013-03-06 21:11:00,
2013-03-06 14:21:00,38.0,13.0,-100.00,NNE,18,7.0,8.0,36,-99.99,,,0.00,543.000000,,2013-03-06 21:21:00,
2013-03-06 14:42:00,45.0,15.0,-100.00,North,4,4.0,12.0,29,0.00,,,0.00,590.000000,,2013-03-06 21:42:00,
2013-03-06 14:52:00,45.0,15.0,-100.00,North,4,4.0,12.0,29,0.00,,,0.00,590.000000,,2013-03-06 21:52:00,
2013-03-06 15:01:00,45.0,15.0,-100.00,North,4,4.0,12.0,29,0.00,,,0.00,590.000000,,2013-03-06 22:01:00,
2013-03-06 15:11:00,45.0,15.0,-100.00,North,4,4.0,12.0,29,0.00,,,0.00,590.000000,,2013-03-06 22:11:00,
2013-03-06 15:21:00,45.0,15.0,-100.00,North,4,4.0,12.0,29,0.00,,,0.00,590.000000,,2013-03-06 22:21:00,
2013-03-06 15:42:00,48.0,16.0,-100.00,NNE,19,3.0,10.0,27,0.00,,,0.00,775.000000,,2013-03-06 22:42:00,
2013-03-06 15:52:00,48.0,16.0,-100.00,NNE,19,3.0,10.0,27,0.00,,,0.00,775.000000,,2013-03-06 22:52:00,
2013-03-06 16:01:00,48.0,16.0,-100.00,NNE,19,3.0,10.0,27,0.00,,,0.00,775.000000,,2013-03-06 23:01:00,
2013-03-06 16:11:00,48.0,16.0,-100.00,NNE,19,3.0,10.0,27,0.00,,,0.00,775.000000,,2013-03-06 23:11:00,
2013-03-06 16:21:00,48.0,16.0,-100.00,NNE,19,3.0,10.0,27,0.00,,,0.00,775.000000,,2013-03-06 23:21:00,
2013-03-06 16:42:00,54.0,27.0,-100.00,NE,50,9.0,9.0,35,0.00,,,0.00,655.000000,,2013-03-06 23:42:00,
2013-03-06 16:52:00,54.0,27.0,-100.00,NE,50,9.0,9.0,35,0.00,,,0.00,655.000000,,2013-03-06 23:52:00,
2013-03-06 17:42:00,44.0,20.0,-100.00,East,81,6.0,19.0,38,-99.99,,,0.00,294.000000,,2013-03-07 00:42:00,
2013-03-06 17:52:00,44.0,20.0,-100.00,East,81,6.0,19.0,38,-99.99,,,0.00,294.000000,,2013-03-07 00:52:00,
2013-03-06 18:01:00,44.0,20.0,-100.00,East,81,6.0,19.0,38,-99.99,,,0.00,294.000000,,2013-03-07 01:01:00,
2013-03-06 18:11:00,44.0,20.0,-100.00,East,81,6.0,19.0,38,-99.99,,,0.00,294.000000,,2013-03-07 01:11:00,
2013-03-06 18:21:00,44.0,20.0,-100.00,East,81,6.0,19.0,38,-99.99,,,0.00,294.000000,,2013-03-07 01:21:00,
2013-03-06 18:42:00,42.0,23.0,-100.00,NNW,344,2.0,16.0,46,0.00,,,0.00,140.000000,,2013-03-07 01:42:00,
2013-03-06 18:52:00,42.0,23.0,-100.00,NNW,344,2.0,16.0,46,0.00,,,0.00,140.000000,,2013-03-07 01:52:00,
2013-03-06 19:01:00,42.0,23.0,-100.00,NNW,344,2.0,16.0,46,0.00,,,0.00,140.000000,,2013-03-07 02:01:00,
2013-03-06 19:11:00,42.0,23.0,-100.00,NNW,344,2.0,16.0,46,0.00,,,0.00,140.000000,,2013-03-07 02:11:00,
2013-03-06 19:21:00,42.0,23.0,-100.00,NNW,344,2.0,16.0,46,0.00,,,0.00,140.000000,,2013-03-07 02:21:00,
2013-03-06 20:01:00,37.0,21.0,-100.00,SW,233,3.0,13.0,53,0.00,,,0.00,22.000000,,2013-03-07 03:01:00,
2013-03-06 20:11:00,37.0,21.0,-100.00,SW,233,3.0,13.0,53,0.00,,,0.00,22.000000,,2013-03-07 03:11:00,
2013-03-06 20:21:00,37.0,21.0,-100.00,SW,233,3.0,13.0,53,0.00,,,0.00,22.000000,,2013-03-07 03:21:00,
2013-03-06 20:42:00,33.0,19.0,-100.00,WSW,244,11.0,11.0,55,0.00,,,0.00,0.000000,,2013-03-07 03:42:00,
2013-03-06 20:52:00,33.0,19.0,-100.00,WSW,244,11.0,11.0,55,0.00,,,0.00,0.000000,,2013-03-07 03:52:00,
2013-03-06 21:01:00,33.0,19.0,-100.00,WSW,244,11.0,11.0,55,0.00,,,0.00,0.000000,,2013-03-07 04:01:00,
2013-03-06 21:11:00,33.0,19.0,-100.00,WSW,244,11.0,11.0,55,0.00,,,0.00,0.000000,,2013-03-07 04:11:00,
2013-03-06 21:21:00,33.0,19.0,-100.00,WSW,244,11.0,11.0,55,0.00,,,0.00,0.000000,,2013-03-07 04:21:00,
2013-03-06 21:22:00,40.0,27.0,-100.00,NNW,346,3.0,17.0,59,0.00,,,0.00,0.000000,,2013-03-07 04:22:00,
2013-03-06 21:42:00,40.0,27.0,-100.00,NNW,346,3.0,17.0,59,0.00,,,0.00,0.000000,,2013-03-07 04:42:00,
2013-03-06 21:52:00,40.0,27.0,-100.00,NNW,346,3.0,17.0,59,0.00,,,0.00,0.000000,,2013-03-07 04:52:00,
2013-03-06 22:01:00,40.0,27.0,-100.00,NNW,346,3.0,17.0,59,0.00,,,0.00,0.000000,,2013-03-07 05:01:00,
2013-03-06 22:12:00,40.0,27.0,-100.00,NNW,346,3.0,17.0,59,0.00,,,0.00,0.000000,,2013-03-07 05:12:00,
2013-03-06 22:42:00,37.0,25.0,-100.00,SSE,160,1.0,10.0,62,0.00,,,0.00,0.000000,,2013-03-07 05:42:00,
2013-03-06 22:52:00,37.0,25.0,-100.00,SSE,160,1.0,10.0,62,0.00,,,0.00,0.000000,,2013-03-07 05:52:00,
2013-03-06 23:01:00,37.0,25.0,-100.00,SSE,160,1.0,10.0,62,0.00,,,0.00,0.000000,,2013-03-07 06:01:00,
2013-03-06 23:11:00,37.0,25.0,-100.00,SSE,160,1.0,10.0,62,0.00,,,0.00,0.000000,,2013-03-07 06:11:00,
2013-03-06 23:21:00,37.0,25.0,-100.00,SSE,160,1.0,10.0,62,0.00,,,0.00,0.000000,,2013-03-07 06:21:00,
2013-03-06 23:42:00,35.0,24.0,-100.00,SSE,161,3.0,12.0,64,0.00,,,0.00,0.000000,,2013-03-07 06:42:00,
2013-03-06 23:52:00,35.0,24.0,-100.00,SSE,161,3.0,12.0,64,0.00,,,0.00,0.000000,,2013-03-07 06:52:00,